TimeAKDT,TemperatureF,Dew PointF,Humidity,Sea Level PressureIn,VisibilityMPH,Wind Direction,Wind SpeedMPH,Gust SpeedMPH,PrecipitationIn,Events,Conditions,WindDirDegrees,DateUTC
12:16 AM,30.2,23.0,75,29.95,10.0,NE,9.2,-,N/A,,Clear,50,2013-08-25 08:16:00
12:36 AM,30.2,23.0,75,29.95,10.0,NE,8.1,-,N/A,,Clear,50,2013-08-25 08:36:00
12:56 AM,30.2,24.8,80,29.95,10.0,NE,8.1,-,N/A,,Partly Cloudy,50,2013-08-25 08:56:00
1:16 AM,30.2,24.8,80,29.95,10.0,NE,6.9,-,N/A,,Mostly Cloudy,40,2013-08-25 09:16:00
1:36 AM,30.2,24.8,80,29.95,10.0,North,4.6,-,N/A,,Overcast,10,2013-08-25 09:36:00
1:56 AM,30.2,23.0,75,29.95,10.0,North,6.9,-,N/A,,Overcast,10,2013-08-25 09:56:00
2:16 AM,30.2,24.8,80,29.95,10.0,North,5.8,-,N/A,,Overcast,10,2013-08-25 10:16:00
2:36 AM,30.2,24.8,80,29.94,10.0,NNE,5.8,-,N/A,,Overcast,30,2013-08-25 10:36:00
2:56 AM,32.0,24.8,75,29.94,10.0,NNE,5.8,-,N/A,,Overcast,30,2013-08-25 10:56:00
3:16 AM,32.0,24.8,75,29.94,10.0,NNE,5.8,-,N/A,,Overcast,30,2013-08-25 11:16:00
3:36 AM,32.0,24.8,75,29.94,10.0,NNE,5.8,-,N/A,,Overcast,30,2013-08-25 11:36:00
3:56 AM,32.0,24.8,75,29.93,10.0,North,4.6,-,N/A,,Overcast,10,2013-08-25 11:56:00
4:16 AM,32.0,24.8,75,29.93,10.0,North,4.6,-,N/A,,Overcast,10,2013-08-25 12:16:00
4:36 AM,32.0,24.8,75,29.93,10.0,NNE,4.6,-,N/A,,Overcast,30,2013-08-25 12:36:00
4:56 AM,32.0,24.8,75,29.93,10.0,NNE,5.8,-,N/A,,Overcast,20,2013-08-25 12:56:00
5:16 AM,32.0,24.8,75,29.93,10.0,North,4.6,-,N/A,,Overcast,10,2013-08-25 13:16:00
5:36 AM,32.0,24.8,75,29.92,10.0,North,4.6,-,N/A,,Overcast,10,2013-08-25 13:36:00
5:56 AM,32.0,24.8,75,29.92,10.0,NNE,3.5,-,N/A,,Overcast,20,2013-08-25 13:56:00
6:16 AM,32.0,24.8,75,29.92,10.0,NE,3.5,-,N/A,,Overcast,40,2013-08-25 14:16:00
6:36 AM,32.0,24.8,75,29.92,10.0,NE,5.8,-,N/A,,Overcast,50,2013-08-25 14:36:00
6:56 AM,32.0,24.8,75,29.92,10.0,ENE,5.8,-,N/A,,Overcast,60,2013-08-25 14:56:00
7:16 AM,32.0,24.8,75,29.92,7.0,NE,3.5,-,N/A,,Overcast,40,2013-08-25 15:16:00
7:36 AM,30.2,24.8,80,29.92,1.8,NNE,4.6,-,N/A,,Overcast,30,2013-08-25 15:36:00
7:56 AM,30.2,24.8,80,29.92,1.5,NNE,4.6,-,N/A,,Overcast,30,2013-08-25 15:56:00
8:16 AM,30.2,24.8,80,29.92,2.0,NNE,5.8,-,N/A,,Overcast,20,2013-08-25 16:16:00
8:36 AM,30.2,26.6,86,29.92,3.0,NNE,4.6,-,N/A,,Overcast,20,2013-08-25 16:36:00
8:56 AM,32.0,24.8,75,29.92,3.0,NE,4.6,-,N/A,,Overcast,40,2013-08-25 16:56:00
9:16 AM,32.0,24.8,75,29.92,7.0,ENE,5.8,-,N/A,,Overcast,60,2013-08-25 17:16:00
9:36 AM,32.0,24.8,75,29.91,10.0,NE,6.9,-,N/A,,Overcast,50,2013-08-25 17:36:00
9:56 AM,32.0,26.6,80,29.91,4.0,ENE,6.9,-,N/A,,Overcast,60,2013-08-25 17:56:00
10:16 AM,33.8,24.8,70,29.91,10.0,ENE,9.2,-,N/A,,Overcast,60,2013-08-25 18:16:00
10:36 AM,33.8,24.8,70,29.91,10.0,NE,9.2,-,N/A,,Overcast,50,2013-08-25 18:36:00
10:56 AM,33.8,24.8,70,29.91,10.0,ENE,9.2,-,N/A,,Overcast,70,2013-08-25 18:56:00
11:16 AM,35.6,24.8,65,29.91,10.0,ENE,6.9,-,N/A,,Mostly Cloudy,70,2013-08-25 19:16:00
11:36 AM,35.6,24.8,65,29.90,10.0,ENE,9.2,-,N/A,,Mostly Cloudy,60,2013-08-25 19:36:00
11:56 AM,37.4,24.8,60,29.90,10.0,NE,8.1,-,N/A,,Partly Cloudy,40,2013-08-25 19:56:00
12:16 PM,37.4,24.8,60,29.89,10.0,NE,10.4,-,N/A,,Clear,50,2013-08-25 20:16:00
12:36 PM,37.4,24.8,60,29.89,10.0,NE,8.1,-,N/A,,Clear,40,2013-08-25 20:36:00
12:56 PM,39.2,24.8,56,29.89,10.0,NE,10.4,-,N/A,,Clear,40,2013-08-25 20:56:00
1:16 PM,39.2,24.8,56,29.89,10.0,ENE,11.5,16.1,N/A,,Clear,60,2013-08-25 21:16:00
1:36 PM,41.0,26.6,57,29.89,10.0,NE,13.8,-,N/A,,Clear,40,2013-08-25 21:36:00
1:56 PM,41.0,26.6,57,29.88,10.0,NE,11.5,-,N/A,,Clear,50,2013-08-25 21:56:00
2:16 PM,42.8,26.6,53,29.89,10.0,NE,13.8,-,N/A,,Clear,50,2013-08-25 22:16:00
2:36 PM,42.8,26.6,53,29.89,10.0,NE,13.8,-,N/A,,Clear,50,2013-08-25 22:36:00
2:56 PM,42.8,26.6,53,29.89,10.0,NE,15.0,-,N/A,,Clear,40,2013-08-25 22:56:00
3:16 PM,42.8,26.6,53,29.88,10.0,NE,15.0,-,N/A,,Clear,40,2013-08-25 23:16:00
3:36 PM,44.6,26.6,49,29.88,10.0,NE,15.0,20.7,N/A,,Clear,40,2013-08-25 23:36:00
3:56 PM,42.8,26.6,53,29.88,10.0,NE,16.1,20.7,N/A,,Clear,50,2013-08-25 23:56:00
4:16 PM,44.6,26.6,49,29.87,10.0,NE,18.4,23.0,N/A,,Clear,50,2013-08-26 00:16:00
4:36 PM,44.6,26.6,49,29.87,10.0,NE,17.3,21.9,N/A,,Clear,50,2013-08-26 00:36:00
4:56 PM,44.6,26.6,49,29.87,10.0,NE,15.0,21.9,N/A,,Clear,50,2013-08-26 00:56:00
5:16 PM,44.6,26.6,49,29.87,10.0,NE,15.0,21.9,N/A,,Clear,40,2013-08-26 01:16:00
5:36 PM,44.6,26.6,49,29.87,10.0,NE,13.8,23.0,N/A,,Clear,40,2013-08-26 01:36:00
5:56 PM,44.6,26.6,49,29.87,10.0,NE,15.0,23.0,N/A,,Clear,50,2013-08-26 01:56:00
6:16 PM,42.8,26.6,53,29.87,10.0,NE,16.1,20.7,N/A,,Clear,50,2013-08-26 02:16:00
6:36 PM,42.8,26.6,53,29.87,10.0,NE,16.1,19.6,N/A,,Clear,50,2013-08-26 02:36:00
6:56 PM,42.8,28.4,57,29.87,10.0,NE,13.8,18.4,N/A,,Clear,40,2013-08-26 02:56:00
7:16 PM,42.8,26.6,53,29.87,10.0,NE,15.0,21.9,N/A,,Clear,40,2013-08-26 03:16:00
7:36 PM,42.8,26.6,53,29.87,10.0,NE,15.0,20.7,N/A,,Clear,50,2013-08-26 03:36:00
7:56 PM,41.0,26.6,57,29.87,10.0,NE,12.7,-,N/A,,Clear,40,2013-08-26 03:56:00
8:16 PM,39.2,26.6,61,29.87,10.0,NE,11.5,-,N/A,,Clear,40,2013-08-26 04:16:00
8:36 PM,39.2,26.6,61,29.87,10.0,NE,12.7,-,N/A,,Clear,50,2013-08-26 04:36:00
8:56 PM,37.4,24.8,60,29.87,10.0,ENE,13.8,-,N/A,,Clear,60,2013-08-26 04:56:00
9:16 PM,37.4,24.8,60,29.88,10.0,ENE,12.7,-,N/A,,Clear,60,2013-08-26 05:16:00
9:36 PM,35.6,24.8,65,29.88,10.0,ENE,13.8,-,N/A,,Clear,60,2013-08-26 05:36:00
9:56 PM,35.6,24.8,65,29.88,10.0,ENE,9.2,-,N/A,,Clear,60,2013-08-26 05:56:00
10:16 PM,33.8,24.8,70,29.89,10.0,ENE,9.2,-,N/A,,Clear,60,2013-08-26 06:16:00
10:36 PM,33.8,24.8,70,29.89,10.0,ENE,9.2,-,N/A,,Clear,60,2013-08-26 06:36:00
10:56 PM,33.8,24.8,70,29.89,10.0,NE,10.4,-,N/A,,Clear,50,2013-08-26 06:56:00
11:16 PM,32.0,23.0,69,29.89,10.0,NE,10.4,-,N/A,,Clear,50,2013-08-26 07:16:00
11:36 PM,30.2,23.0,75,29.89,10.0,NE,10.4,-,N/A,,Clear,40,2013-08-26 07:36:00
11:56 PM,30.2,23.0,75,29.89,10.0,NE,10.4,-,N/A,,Clear,40,2013-08-26 07:56:00